Showing default

TECHEDSAT-11, 60208

Orbit data source: Space-Track

TECHEDSAT-11, 60208 is an American payload satellite in SSO that was launched on Thu, 04 Jul 2024 UTC via an FIREFLY ALPHA launch vehicle from the Air Force Western Test Range (AFWTR). Payload-class satellites include a variety of spacecraft equipped with specific instruments for various scientific and technological missions. These include communications satellites like Starlink; space stations such as the ISS; scientific satellites like the Hubble; Earth observation satellites from companies like Planet Labs, Umbra, and HawkEye 360; GPS; miniature CubeSats for education and research; and military/defense satellites.

Loading next visibility...
Identifier
60208, 2024-125F
Orbit
SSO
Country
Flag of USUS
Related business
Manufacturer
ARC
Mission
Operational Civil Technology
Bus & Motor
CUBESAT 6UXL, Unknown motor
Mass
10 kg wet, 10 kg dry
Launch date (UTC)
2024-07-04 (2 years ago)
Launch vehicle
FIREFLY ALPHA
Launch site
Air Force Western Test Range (AFWTR)
Object type
Payload
Rocket body
Debris
Shape & HBR
Box + 1 Sail, 1.0 m
Radar Cross Section
0.045 m², Small (<0.1 m²)

Expand to show TLE details & history
Last TLE update: 9 hours ago

TLE from 9 hours ago
0 TECHEDSAT-11
1 60208U 24125F   26036.05348453  .01229176  00000-0  11591-1 0  9995
2 60208  97.2449 249.3759 0016626   6.7349 353.4131 15.64190768 88869
Epoch: 2026-02-05T01:17Z
TLE epoch observation values (Epoch: 2026-02-05T01:17:01.063Z)
Latitude
0.00002°
Longitude
94.91023°
Altitude
367.565 km
Speed
7.695 km/s
True Right ascension
16h 37m 30s
True Declination
0° 00' 00"
Sunlit
Object was in daylight at epoch
Visualization orbit readout
Latitude
Unknown
Longitude
Unknown
Altitude
Unknown
Speed
Unknown
Apparent Right ascension
Unknown
Apparent Declination
Unknown
Sunlit
N/A
Visualization observer readout
Local Sidereal Time
12:44:21
Azimuth
Unknown
Elevation
Unknown
Doppler factor
Unknown
Orbital elements
Apogee altitude
383.691 km
Perigee altitude
361.244 km
Semi-major axis
6,750.604 km
Eccentricity
0.00166
Inclination
97.2449°
RAAN
249.3759°
Arg. of periapsis
6.7349°
True anomaly
353.3912°
Mean anomaly
353.4131°
Eccentric anomaly
353.40215°
Mean motion
3.91317 °/min
Orbital period
92 mins
BSTAR
0.011591
Loading maneuver chart data...
Computing Atmospheric mass density...
Loading historical data...
Loading historical data...
Loading historical data...
Loading historical data...
Loading historical data...
Loading historical data...
Loading historical data...

Documentation

Showing up to 5 results
|